$DATE,$TIME,DM0600B,DM0602B,DM0604B,DM0614B,DM0616B,DM0618B,DM0624B,DM0628B,DM0630B,DM0634B,DM0606B,DM0608B,DM0610B
11/08/94,00:00:00,0,0,0,0,30,27,55,62,31,0,11,17,8
11/08/94,00:05:00,0,0,0,0,73,66,163,61,31,0,10,24,7
11/08/94,00:10:00,0,0,0,0,68,61,125,61,31,0,10,17,7
11/08/94,00:15:00,0,0,0,0,87,78,159,61,31,0,10,13,9
11/08/94,00:20:00,0,0,0,0,0,0,0,62,31,0,9,12,8
11/08/94,00:25:00,10,2,3,0,69,61,132,60,31,0,14,19,8
11/08/94,00:30:00,0,3,2,0,40,37,74,61,31,0,12,16,8
11/08/94,00:35:00,0,0,0,0,44,40,81,61,31,0,11,13,8
11/08/94,00:40:00,0,0,0,0,48,43,91,61,31,0,10,11,8
11/08/94,00:45:00,0,0,0,0,45,41,83,61,31,0,10,10,8
11/08/94,00:50:00,0,0,0,0,92,84,168,61,31,0,10,14,8
11/08/94,00:55:00,0,0,0,0,0,0,0,61,31,0,10,17,8
11/08/94,01:00:00,0,0,0,0,43,39,79,61,31,0,18,13,8
11/08/94,01:05:00,0,0,3,0,37,34,69,61,31,0,14,12,8
11/08/94,01:10:00,0,0,0,0,35,32,66,61,31,0,12,22,8
11/08/94,01:15:00,0,0,0,0,28,26,53,62,31,0,11,20,8
11/08/94,01:20:00,0,0,0,0,26,24,49,62,31,0,21,15,20
11/08/94,01:25:00,0,0,0,0,22,21,42,62,31,0,17,22,14
11/08/94,01:30:00,0,0,0,0,22,20,41,62,31,0,14,26,12
11/08/94,01:35:00,0,0,0,0,21,20,40,62,31,0,22,18,22
11/08/94,01:40:00,0,0,0,0,39,22,59,62,31,0,16,24,14
11/08/94,01:45:00,0,0,0,0,41,24,63,62,31,0,16,25,11
11/08/94,01:50:00,0,0,0,0,48,27,73,62,31,0,19,17,10
11/08/94,01:55:00,0,0,20,0,64,37,98,61,31,0,14,17,9
11/08/94,02:00:00,0,0,0,0,58,33,89,61,31,0,12,23,9
11/08/94,02:05:00,0,2,9,0,52,44,112,61,31,0,11,17,8
11/08/94,02:10:00,0,0,0,0,0,0,0,61,31,0,11,13,8
11/08/94,02:15:00,4,4,16,0,92,76,160,61,31,0,15,18,13
11/08/94,02:20:00,12,12,16,4,0,0,0,61,31,0,13,17,11
11/08/94,02:25:00,3,0,10,3,61,58,112,61,31,0,11,13,10
11/08/94,02:30:00,0,0,0,0,63,62,121,60,31,0,11,11,9
11/08/94,02:35:00,0,0,0,0,60,62,117,60,30,0,10,10,9
11/08/94,02:40:00,0,0,0,0,60,63,118,60,38,0,10,9,8
11/08/94,02:45:00,0,0,0,0,0,0,0,61,38,0,10,11,8
11/08/94,02:50:00,0,0,0,0,55,58,108,61,31,0,16,22,8
11/08/94,02:55:00,0,0,0,0,54,57,108,60,31,0,14,18,8
11/08/94,03:00:00,0,0,0,0,51,52,103,60,31,0,12,14,8
11/08/94,03:05:00,0,0,2,0,48,49,92,60,31,0,11,12,8
11/08/94,03:10:00,0,0,0,0,59,59,114,60,31,0,10,10,8
11/08/94,03:15:00,0,0,0,0,68,65,129,60,30,0,10,9,8
11/08/94,03:20:00,18,23,29,31,0,0,0,61,31,0,10,12,9
11/08/94,03:25:00,64,75,46,41,0,0,0,60,30,0,9,20,8
11/08/94,03:30:00,37,24,29,30,0,0,0,60,30,0,9,16,7
11/08/94,03:35:00,28,32,23,36,0,0,0,61,30,0,9,12,8
11/08/94,03:40:00,45,17,31,31,0,0,0,60,30,0,8,10,7
11/08/94,03:45:00,42,31,31,29,0,0,0,60,30,0,8,9,7
11/08/94,03:50:00,47,30,42,26,0,0,0,60,30,0,7,8,7
11/08/94,03:55:00,43,31,33,38,0,0,0,60,30,0,8,8,7
11/08/94,04:00:00,38,56,23,34,0,0,0,60,30,0,8,7,7
11/08/94,04:05:00,37,50,34,38,0,0,0,60,30,0,8,7,7
11/08/94,04:10:00,29,21,33,28,0,0,0,60,39,0,8,7,7
11/08/94,04:15:00,60,36,42,36,0,0,0,60,39,0,7,6,7
11/08/94,04:20:00,56,32,47,36,0,0,0,60,39,0,8,7,7
11/08/94,04:25:00,45,26,34,30,0,0,0,60,39,0,8,7,8
11/08/94,04:30:00,34,19,27,29,0,0,0,60,39,0,8,7,8
11/08/94,04:35:00,12,19,22,20,0,0,0,61,40,0,8,7,8
11/08/94,04:40:00,62,49,51,19,0,0,0,60,40,0,8,14,7
11/08/94,04:45:00,54,32,47,37,0,0,0,60,40,0,8,17,7
11/08/94,04:50:00,32,21,28,14,0,0,0,61,40,0,9,13,7
11/08/94,04:55:00,45,35,44,27,0,0,0,60,40,0,8,11,7
11/08/94,05:00:00,61,24,42,38,0,0,0,60,40,0,9,9,7
11/08/94,05:05:00,43,26,35,36,0,0,0,60,44,0,8,8,7
11/08/94,05:10:00,45,24,37,37,0,0,0,60,44,0,8,7,7
11/08/94,05:15:00,31,29,36,37,0,0,0,60,44,0,8,7,7
11/08/94,05:20:00,40,14,32,28,0,0,0,60,44,0,7,6,7
11/08/94,05:25:00,47,19,31,31,0,0,0,60,44,0,7,6,7
11/08/94,05:30:00,42,30,47,31,0,0,0,60,44,0,7,6,7
11/08/94,05:35:00,35,36,40,40,0,0,0,61,44,0,7,6,7
11/08/94,05:40:00,37,22,45,27,0,0,0,61,44,0,7,6,7
11/08/94,05:45:00,46,14,30,38,0,0,0,61,44,0,7,6,7
11/08/94,05:50:00,42,28,34,38,0,0,0,61,44,0,6,6,7
11/08/94,05:55:00,37,33,31,30,0,0,0,61,44,0,7,5,7
11/08/94,06:00:00,49,15,33,26,0,0,0,61,44,0,7,5,7
11/08/94,06:05:00,53,20,18,42,0,0,0,61,36,0,7,5,7
11/08/94,06:10:00,39,48,32,37,0,0,0,61,52,0,7,5,7
11/08/94,06:15:00,54,28,38,40,0,0,0,61,52,0,6,5,6
11/08/94,06:20:00,48,32,40,30,0,0,0,61,52,0,6,5,6
11/08/94,06:25:00,36,40,41,43,0,0,0,61,52,0,6,5,6
11/08/94,06:30:00,50,35,41,36,0,0,0,60,43,0,6,5,6
11/08/94,06:35:00,34,46,47,36,0,0,0,60,45,0,6,6,7
11/08/94,06:40:00,50,44,36,37,0,0,0,60,44,0,6,6,7
11/08/94,06:45:00,36,40,22,36,0,0,0,60,44,0,6,6,7
11/08/94,06:50:00,59,73,41,38,0,0,0,60,44,0,6,5,6
11/08/94,06:55:00,48,49,34,42,0,0,0,60,44,0,6,5,7
11/08/94,07:00:00,29,23,42,23,0,0,0,60,44,0,6,5,7
11/08/94,07:05:00,45,42,29,35,0,0,0,60,40,0,7,5,7
11/08/94,07:10:00,40,43,39,30,0,0,0,60,40,0,6,5,6
11/08/94,07:15:00,32,17,36,39,0,0,0,60,40,0,6,5,6
11/08/94,07:20:00,49,26,36,30,0,0,0,60,48,0,6,5,7
11/08/94,07:25:00,30,31,34,30,0,0,0,60,40,0,6,5,7
11/08/94,07:30:00,50,24,34,29,0,0,0,60,40,0,6,6,6
11/08/94,07:35:00,34,29,36,31,0,0,0,61,40,0,7,6,7
11/08/94,07:40:00,43,39,41,46,0,0,0,61,40,0,6,6,7
11/08/94,07:45:00,45,28,40,33,0,0,0,61,40,0,6,6,7
11/08/94,07:50:00,42,29,35,40,0,0,0,61,40,0,6,6,7
11/08/94,07:55:00,50,45,40,28,0,0,0,61,40,0,7,6,6
11/08/94,08:00:00,49,27,35,31,0,0,0,61,32,0,6,6,6
11/08/94,08:05:00,35,47,38,33,0,0,0,61,32,0,7,6,6
11/08/94,08:10:00,44,27,39,38,0,0,0,60,32,0,7,5,6
11/08/94,08:15:00,41,32,34,31,0,0,0,60,32,0,7,6,6
11/08/94,08:20:00,31,26,30,32,0,0,0,60,32,0,7,6,5
11/08/94,08:25:00,39,37,37,34,0,0,0,60,32,0,7,6,6
11/08/94,08:30:00,43,33,33,34,0,0,0,60,32,0,7,6,6
11/08/94,08:35:00,40,36,37,37,0,0,0,60,32,0,6,6,5
11/08/94,08:40:00,36,29,34,36,0,0,0,60,32,0,6,6,6
11/08/94,08:45:00,41,32,30,34,0,0,0,60,41,0,6,6,7
11/08/94,08:50:00,36,28,44,30,0,0,0,60,41,0,6,6,7
11/08/94,08:55:00,45,29,43,35,0,0,0,60,41,0,6,6,6
11/08/94,09:00:00,44,25,36,29,0,0,0,60,41,0,6,6,6
11/08/94,09:05:00,43,25,50,34,0,0,0,60,41,0,6,5,6
11/08/94,09:10:00,36,42,33,30,0,0,0,60,41,0,7,5,6
11/08/94,09:15:00,40,27,34,25,0,0,0,60,41,0,6,5,6
11/08/94,09:20:00,40,26,35,29,0,0,0,60,41,0,6,6,6
11/08/94,09:25:00,47,39,36,32,0,0,0,60,41,0,6,6,6
11/08/94,09:30:00,42,33,37,38,0,0,0,61,41,0,6,6,6
11/08/94,09:35:00,49,33,32,34,0,0,0,61,41,0,6,6,6
11/08/94,09:40:00,47,33,44,29,0,0,0,61,41,0,6,5,6
11/08/94,09:45:00,43,36,42,30,0,0,0,61,41,0,6,5,6
11/08/94,09:50:00,54,30,30,29,0,0,0,61,41,0,6,5,7
11/08/94,09:55:00,40,34,36,26,0,0,0,61,41,0,6,5,7
11/08/94,10:00:00,43,20,37,31,0,0,0,61,41,0,5,5,7
11/08/94,10:05:00,35,25,32,38,0,0,0,61,41,0,6,5,6
11/08/94,10:10:00,50,26,39,36,0,0,0,61,41,0,6,5,6
11/08/94,10:15:00,43,25,41,27,0,0,0,61,41,0,6,5,6
11/08/94,10:20:00,50,34,44,29,0,0,0,61,39,0,6,6,6
11/08/94,10:25:00,40,11,40,39,0,0,0,61,46,0,6,6,6
11/08/94,10:30:00,26,28,32,38,0,0,0,61,63,0,6,5,6
11/08/94,10:35:00,30,34,27,41,0,0,0,61,39,0,6,5,6
11/08/94,10:40:00,36,21,38,25,0,0,0,61,31,0,6,5,6
11/08/94,10:45:00,42,21,28,34,0,0,0,61,31,0,6,5,6
11/08/94,10:50:00,25,16,17,33,0,0,0,60,31,0,5,5,6
11/08/94,10:55:00,43,41,39,31,0,0,0,60,31,0,5,5,7
11/08/94,11:00:00,49,8,35,27,0,0,0,60,31,0,5,5,6
11/08/94,11:05:00,40,24,35,35,0,0,0,60,31,0,5,5,6
11/08/94,11:10:00,37,17,31,33,0,0,0,60,31,0,5,5,6
11/08/94,11:15:00,40,21,38,32,0,0,0,60,31,0,5,6,5
11/08/94,11:20:00,34,43,33,23,0,0,0,60,31,0,6,6,5
11/08/94,11:25:00,47,15,28,26,0,0,0,60,31,0,6,6,5
11/08/94,11:30:00,53,31,41,29,0,0,0,60,31,0,6,6,5
11/08/94,11:35:00,37,37,31,27,0,0,0,60,31,0,5,5,5
11/08/94,11:40:00,63,0,11,37,0,0,0,61,31,0,5,5,5
11/08/94,11:45:00,45,0,16,38,0,0,0,61,31,0,5,10,5
11/08/94,11:50:00,55,0,13,38,0,0,0,61,31,0,5,20,5
11/08/94,11:55:00,53,0,20,39,0,0,0,61,31,0,5,15,5
11/08/94,12:00:00,45,0,16,45,0,0,0,61,31,0,5,11,6
11/08/94,12:05:00,54,0,43,46,0,0,0,61,31,0,5,9,6
11/08/94,12:10:00,57,3,2,35,0,0,0,61,31,0,10,13,6
11/08/94,12:15:00,51,0,16,40,0,0,0,61,31,0,12,19,6
11/08/94,12:20:00,55,0,10,46,0,0,0,61,31,0,9,14,6
11/08/94,12:25:00,40,0,24,30,0,0,0,61,31,0,8,10,6
11/08/94,12:30:00,33,0,9,42,0,0,0,61,31,0,7,9,6
11/08/94,12:35:00,51,0,22,42,0,0,0,61,31,0,6,15,6
11/08/94,12:40:00,42,0,44,43,0,0,0,61,31,0,6,19,6
11/08/94,12:45:00,50,0,18,47,0,0,0,61,31,0,5,14,5
11/08/94,12:50:00,51,0,25,40,0,0,0,61,31,0,5,11,5
11/08/94,12:55:00,53,0,27,40,2,3,6,61,31,0,5,9,6
11/08/94,13:00:00,50,0,26,44,4,5,6,61,46,0,5,18,5
11/08/94,13:05:00,57,23,0,52,3,4,8,61,31,0,5,18,6
11/08/94,13:10:00,49,0,28,43,2,2,5,61,31,0,5,13,7
11/08/94,13:15:00,63,0,11,29,1,2,4,61,31,0,5,10,6
11/08/94,13:20:00,50,0,16,33,2,2,5,61,31,0,6,11,6
11/08/94,13:25:00,55,0,9,31,2,3,7,61,31,0,5,20,6
11/08/94,13:30:00,43,0,12,36,1,2,4,61,31,0,6,15,6
11/08/94,13:35:00,56,0,27,26,1,2,4,61,31,0,6,11,6
11/08/94,13:40:00,43,0,6,33,1,2,4,61,31,0,6,9,6
11/08/94,13:45:00,48,0,18,43,1,2,4,61,31,0,5,10,6
11/08/94,13:50:00,58,0,10,33,1,2,4,61,31,0,6,20,6
11/08/94,13:55:00,31,0,7,32,1,2,4,61,31,0,5,16,6
11/08/94,14:00:00,53,0,5,43,1,2,4,61,31,0,5,12,6
11/08/94,14:05:00,27,0,14,37,1,2,4,61,47,0,5,10,5
11/08/94,14:10:00,41,0,18,47,3,4,8,61,31,0,5,9,6
11/08/94,14:15:00,70,0,30,37,1,2,4,61,31,0,5,17,6
11/08/94,14:20:00,47,0,22,43,5,5,10,61,31,0,6,17,6
11/08/94,14:25:00,41,0,22,38,5,5,11,61,31,0,6,12,6
11/08/94,14:30:00,56,0,3,39,5,5,11,61,31,0,5,10,5
11/08/94,14:35:00,44,0,5,34,5,5,11,61,31,0,5,9,5
11/08/94,14:40:00,39,0,16,34,5,5,11,61,31,0,5,9,5
11/08/94,14:45:00,48,0,19,45,5,5,11,61,31,0,5,19,5
11/08/94,14:50:00,40,0,11,37,6,6,13,61,31,0,4,15,5
11/08/94,14:55:00,46,0,25,37,6,7,13,61,31,0,12,11,5
11/08/94,15:00:00,57,0,7,45,5,5,11,61,31,0,9,9,5
11/08/94,15:05:00,67,0,0,25,6,6,13,61,31,0,8,8,5
11/08/94,15:10:00,56,0,18,41,7,7,14,61,31,0,7,7,5
11/08/94,15:15:00,52,0,16,36,7,7,14,61,31,0,6,12,5
11/08/94,15:20:00,59,0,10,37,4,5,10,61,30,0,6,18,6
11/08/94,15:25:00,45,0,20,37,3,4,8,61,31,0,6,14,6
11/08/94,15:30:00,32,0,18,30,3,4,8,61,31,0,5,10,6
11/08/94,15:35:00,54,0,14,35,6,6,12,61,31,0,5,9,6
11/08/94,15:40:00,41,0,10,34,7,7,15,61,31,0,5,8,6
11/08/94,15:45:00,61,0,21,33,8,8,16,61,31,0,5,9,6
11/08/94,15:50:00,39,5,9,42,10,9,19,61,31,0,5,18,6
11/08/94,15:55:00,50,0,6,34,10,10,21,61,31,0,5,14,6
11/08/94,16:00:00,47,0,9,32,11,10,21,61,31,0,6,11,6
11/08/94,16:05:00,50,0,7,33,11,11,22,61,31,0,6,9,6
11/08/94,16:10:00,43,0,9,38,12,11,23,62,31,0,6,8,6
11/08/94,16:15:00,46,0,9,36,12,11,24,61,31,0,5,7,6
11/08/94,16:20:00,59,0,8,34,13,12,24,61,31,0,6,7,6
11/08/94,16:25:00,60,0,10,38,13,12,25,61,31,0,5,6,7
11/08/94,16:30:00,34,0,13,38,13,13,26,61,31,0,5,6,7
11/08/94,16:35:00,57,0,4,26,14,13,27,61,31,0,5,6,6
11/08/94,16:40:00,34,3,0,32,14,14,28,61,31,0,6,6,6
11/08/94,16:45:00,49,0,3,46,15,14,29,61,31,0,5,6,6
11/08/94,16:50:00,56,0,13,19,15,14,30,61,31,0,5,6,6
11/08/94,16:55:00,68,0,10,24,16,15,31,61,31,0,6,6,6
11/08/94,17:00:00,43,0,11,31,16,15,31,61,31,0,5,6,6
11/08/94,17:05:00,44,0,10,36,17,16,32,61,31,0,6,6,6
11/08/94,17:10:00,41,2,5,32,18,16,33,61,30,0,7,5,6
11/08/94,17:15:00,34,0,14,43,18,17,34,61,30,0,6,5,6
11/08/94,17:20:00,47,0,12,33,19,17,35,61,30,0,6,5,6
11/08/94,17:25:00,18,0,4,32,19,18,36,61,31,0,6,5,6
11/08/94,17:30:00,47,3,20,35,20,18,38,60,30,0,6,5,7
11/08/94,17:35:00,41,0,14,32,21,19,39,60,30,0,6,5,6
11/08/94,17:40:00,35,1,0,38,21,19,40,60,30,0,6,5,6
11/08/94,17:45:00,47,0,10,32,22,20,41,60,30,0,6,6,6
11/08/94,17:50:00,36,0,3,35,22,21,42,60,30,0,6,6,5
11/08/94,17:55:00,39,25,0,38,23,21,43,60,30,0,6,6,6
11/08/94,18:00:00,35,0,4,27,24,22,44,60,30,0,6,5,5
11/08/94,18:05:00,55,0,2,38,24,22,46,60,30,0,6,5,5
11/08/94,18:10:00,44,0,12,31,25,23,47,61,31,0,6,5,5
11/08/94,18:15:00,37,0,16,30,26,24,48,61,31,0,6,5,5
11/08/94,18:20:00,26,0,4,34,26,24,49,61,31,0,6,5,5
11/08/94,18:25:00,62,0,10,26,27,25,51,61,31,0,6,5,5
11/08/94,18:30:00,52,0,18,26,28,25,52,61,31,0,6,5,5
11/08/94,18:35:00,47,0,9,27,29,26,53,61,31,0,5,5,6
11/08/94,18:40:00,46,0,15,26,29,27,55,60,30,0,6,6,6
11/08/94,18:45:00,41,0,3,28,30,27,56,60,30,0,6,5,6
11/08/94,18:50:00,44,0,3,31,31,28,57,60,30,0,5,5,5
11/08/94,18:55:00,49,0,4,25,31,29,59,60,30,0,5,5,5
11/08/94,19:00:00,50,3,1,28,33,30,15,60,30,0,5,5,5
11/08/94,19:05:00,55,0,5,22,33,30,61,60,30,0,5,5,5
11/08/94,19:10:00,49,0,8,24,34,31,1,60,30,0,6,5,5
11/08/94,19:15:00,51,0,8,32,0,0,0,61,34,0,6,5,5
11/08/94,19:20:00,51,0,12,42,0,0,0,61,34,0,6,14,5
11/08/94,19:25:00,32,0,8,39,0,0,0,61,34,0,6,18,5
11/08/94,19:30:00,57,0,27,35,0,0,0,61,34,0,5,13,5
11/08/94,19:35:00,46,0,14,48,0,0,0,61,34,0,5,10,5
11/08/94,19:40:00,54,0,10,43,0,0,0,61,34,0,5,9,7
11/08/94,19:45:00,71,0,8,52,0,0,0,61,35,0,5,19,7
11/08/94,19:50:00,42,0,6,39,0,0,0,61,35,0,5,17,6
11/08/94,19:55:00,56,0,16,35,0,0,0,61,35,0,5,12,6
11/08/94,20:00:00,72,0,9,49,0,0,0,61,35,0,5,9,6
11/08/94,20:05:00,39,0,15,42,0,0,0,61,35,0,5,11,6
11/08/94,20:10:00,42,0,12,43,0,0,0,61,35,0,14,20,6
11/08/94,20:15:00,61,0,29,33,0,0,0,61,35,0,11,16,6
11/08/94,20:20:00,67,0,16,33,0,0,0,61,35,0,9,12,6
11/08/94,20:25:00,58,12,0,45,0,0,0,61,35,0,7,9,6
11/08/94,20:30:00,48,0,9,46,0,0,0,61,35,0,7,11,6
11/08/94,20:35:00,57,0,15,39,0,0,0,62,42,0,6,20,6
11/08/94,20:40:00,42,0,14,45,0,0,0,61,51,0,6,16,6
11/08/94,20:45:00,48,6,7,36,47,43,86,61,51,0,5,12,7
11/08/94,20:50:00,38,0,15,24,47,43,88,60,50,0,6,9,6
11/08/94,20:55:00,50,0,13,44,0,0,0,61,55,0,5,8,6
11/08/94,21:00:00,55,0,0,40,0,0,0,61,55,0,5,8,6
11/08/94,21:05:00,36,0,15,36,50,45,92,61,55,0,5,17,5
11/08/94,21:10:00,37,0,11,32,51,45,93,60,55,0,5,16,5
11/08/94,21:15:00,60,0,22,34,0,0,0,61,55,0,6,12,5
11/08/94,21:20:00,55,0,8,35,0,0,0,61,55,0,6,10,5
11/08/94,21:25:00,55,21,14,32,53,47,96,61,55,0,5,13,5
11/08/94,21:30:00,39,0,19,26,53,47,97,60,51,0,5,15,5
11/08/94,21:35:00,40,0,11,35,0,0,0,61,51,0,5,12,5
11/08/94,21:40:00,50,0,3,48,0,0,0,61,51,0,6,9,5
11/08/94,21:45:00,58,0,11,34,56,50,103,61,51,0,14,13,5
11/08/94,21:50:00,37,0,8,41,0,0,0,61,51,0,11,14,6
11/08/94,21:55:00,47,0,6,42,0,0,0,61,51,0,9,11,6
11/08/94,22:00:00,46,0,10,45,0,0,0,61,53,0,8,9,6
11/08/94,22:05:00,31,6,0,35,64,56,114,61,53,0,7,14,6
11/08/94,22:10:00,36,0,2,35,0,0,0,61,53,0,6,15,6
11/08/94,22:15:00,50,0,13,41,0,0,0,61,52,0,6,11,6
11/08/94,22:20:00,47,0,31,44,0,0,0,63,53,0,6,9,6
11/08/94,22:25:00,34,0,24,26,60,54,115,62,52,0,6,15,6
11/08/94,22:30:00,38,0,10,45,0,0,0,63,52,0,6,13,6
11/08/94,22:35:00,51,0,6,35,0,0,0,60,53,0,5,10,6
11/08/94,22:40:00,56,0,9,30,56,50,102,59,52,0,9,12,6
11/08/94,22:45:00,43,0,16,33,0,0,0,57,52,0,9,14,5
11/08/94,22:50:00,42,0,23,32,0,0,0,57,53,0,8,12,6
11/08/94,22:55:00,39,0,13,39,0,0,0,58,53,0,7,9,7
11/08/94,23:00:00,32,1,5,30,70,60,110,57,52,0,6,14,6
11/08/94,23:05:00,23,0,11,34,0,0,0,59,44,0,6,13,6
11/08/94,23:10:00,56,0,14,33,0,0,0,58,44,0,6,11,6
11/08/94,23:15:00,55,0,19,45,0,0,0,57,40,0,6,9,6
11/08/94,23:20:00,42,0,32,36,0,0,0,58,48,0,6,11,6
11/08/94,23:25:00,50,0,11,29,56,48,99,57,48,0,5,18,6
11/08/94,23:30:00,45,0,19,42,0,0,0,57,48,0,6,14,6
11/08/94,23:35:00,72,0,15,39,0,0,0,58,48,0,5,11,6
11/08/94,23:40:00,42,0,16,43,0,0,0,58,49,0,5,9,6
11/08/94,23:45:00,51,0,32,33,0,0,0,58,49,0,6,17,6
11/08/94,23:50:00,39,0,7,33,0,0,0,58,49,0,6,19,6
11/08/94,23:55:00,41,0,14,32,65,59,120,57,49,0,6,14,6
11/09/94,00:00:00,51,0,0,33,0,0,0,57,47,0,5,11,7
